This is the latest recevied weather packets stored in our database for station/object OE9FWV-10. If no packets are shown the sender has not sent any weather packets the latest 10 day(s).
| Time | Temp. | Humidity | Pressure | Rain* | Wind** | Luminosity | Snow |
|---|---|---|---|---|---|---|---|
| 1777999395 | 27.22° C | 25% | 1011.2 hPa | - | - | - | - |
| 1777998494 | 27.22° C | 25% | 1011.1 hPa | - | - | - | - |
| 1777996694 | 27.78° C | 24% | 1010.9 hPa | - | - | - | - |
| 1777994894 | 27.78° C | 24% | 1010.7 hPa | - | - | - | - |
| 1777993994 | 27.78° C | 24% | 1010.7 hPa | - | - | - | - |
| 1777993094 | 27.78° C | 24% | 1010.6 hPa | - | - | - | - |
| 1777991294 | 27.22° C | 24% | 1010.6 hPa | - | - | - | - |
| 1777990394 | 27.22° C | 24% | 1010.8 hPa | - | - | - | - |
| 1777989494 | 27.22° C | 24% | 1010.8 hPa | - | - | - | - |
| 1777987694 | 27.22° C | 24% | 1010.9 hPa | - | - | - | - |
| 1777986794 | 27.22° C | 25% | 1011.2 hPa | - | - | - | - |
| 1777985894 | 27.22° C | 25% | 1011.2 hPa | - | - | - | - |
| 1777984093 | 26.67° C | 25% | 1011.5 hPa | - | - | - | - |
| 1777983193 | 26.11° C | 25% | 1011.6 hPa | - | - | - | - |
| 1777980493 | 26.11° C | 26% | 1012.1 hPa | - | - | - | - |
| 1777979593 | 26.11° C | 26% | 1012.1 hPa | - | - | - | - |
| 1777978693 | 25.56° C | 26% | 1012.1 hPa | - | - | - | - |
| 1777976893 | 25.56° C | 26% | 1012.2 hPa | - | - | - | - |
| 1777975993 | 25.56° C | 26% | 1012.4 hPa | - | - | - | - |
| 1777975093 | 25.56° C | 26% | 1012.5 hPa | - | - | - | - |
| 1777973292 | 25° C | 27% | 1012.5 hPa | - | - | - | - |
| 1777972392 | 25° C | 27% | 1012.7 hPa | - | - | - | - |
| 1777971492 | 25° C | 27% | 1012.7 hPa | - | - | - | - |
| 1777969692 | 25° C | 27% | 1012.9 hPa | - | - | - | - |
| 1777968792 | 25° C | 27% | 1012.9 hPa | - | - | - | - |
* Rain since midnight (hover to see other rain measurements)
** Current wind speed in m/s (hover to see current wind gust speed)